Location: Killam
(52.7910°N, 111.8608°W)
Time: 14:52:31
(UTC+00:00)

BlueWalker 3 - Pass Details

Date: 25 January 2026
Orbit: 451 x 461 km, 53.2° (Epoch: 16 February)

Event Time Altitude Azimuth Distance (km) Brightness Sun altitude
Rises 02:35:32 0° 247° (WSW) 2,453 6.6 -23.4°
Reaches altitude 10° 02:37:40 10° 245° (WSW) 1,582 5.3 -23.7°
Enters shadow 02:40:09 41° 232° (SW) 663 2.8 -24.1°
